STARLINK-5356, 56418

Orbit data source: Space-Track

STARLINK-5356, 56418 is a payload satellite owned by SpaceX/Seattle (US) in LEO that was launched on Thu, 04 May 2023 UTC via an FALCON 9 launch vehicle from the Air Force Eastern Test Range (AFETR). Payload-class satellites include a variety of spacecraft equipped with specific instruments for various scientific and technological missions. These include communications satellites like Starlink; space stations such as the ISS; scientific satellites like the Hubble; Earth observation satellites from companies like Planet Labs, Umbra, and HawkEye 360; GPS; miniature CubeSats for education and research; and military/defense satellites.

Loading next visibility...
Identifier
56418, 2023-061AW
Orbit
LEO
Country
Flag of USUS
Related business
Manufacturer
SpaceX/Seattle
Mission
Operational Commercial Communications
Bus & Motor
STARLINK, Unknown motor
Mass
305 kg wet, ~290 kg dry
Launch date (UTC)
2023-05-04 (3 years ago)
Launch vehicle
FALCON 9
Launch site
Air Force Eastern Test Range (AFETR)
Object type
Payload
Rocket body
Debris
Shape & HBR
Box + 1 Pan, 10.1 m
Radar Cross Section
11.087 m², Large (>1 m²)

Expand to show TLE details & history
Last TLE update: 2 days ago

TLE from 2 days ago
0 STARLINK-5356
1 56418U 23061AW  26171.42587905 -.00000038  00000-0  81283-5 0  9992
2 56418  43.0020 319.1988 0001290 269.6550  90.4154 15.27578768172671
Epoch: 2026-06-20T10:13Z
TLE epoch observation values (Epoch: 2026-06-20T10:13:15.949Z)
Latitude
-0.00003°
Longitude
-102.75836°
Altitude
482.835 km
Speed
7.626 km/s
True Right ascension
21h 16m 47s
True Declination
0° 00' 00"
Sunlit
Object was in full shadow at epoch
Visualization orbit readout
Latitude
Unknown
Longitude
Unknown
Altitude
Unknown
Speed
Unknown
Apparent Right ascension
Unknown
Apparent Declination
Unknown
Sunlit
N/A
Visualization observer readout
Local Sidereal Time
21:33:04
Azimuth
Unknown
Elevation
Unknown
Doppler factor
Unknown
Orbital elements
Apogee altitude
485.883 km
Perigee altitude
484.112 km
Semi-major axis
6,863.135 km
Eccentricity
0.00013
Inclination
43.002°
RAAN
319.1988°
Arg. of periapsis
269.655°
True anomaly
90.43018°
Mean anomaly
90.4154°
Eccentric anomaly
90.42279°
Mean motion
3.81733 °/min
Orbital period
94.31 mins
BSTAR
0.0000081283
Loading maneuver chart data...
Computing Atmospheric mass density...
Loading historical data...
Loading historical data...
Loading historical data...
Loading historical data...
Loading historical data...
Loading historical data...
Loading historical data...

Documentation

Showing up to 5 results
|